STARLINK-11280, 61245

Orbit data source: Space-Track

STARLINK-11280, 61245 is a payload satellite owned by SpaceX/Seattle (US) in LEO that was launched on Wed, 25 Sep 2024 UTC via an FALCON 9 launch vehicle from the Air Force Western Test Range (AFWTR). Payload-class satellites include a variety of spacecraft equipped with specific instruments for various scientific and technological missions. These include communications satellites like Starlink; space stations such as the ISS; scientific satellites like the Hubble; Earth observation satellites from companies like Planet Labs, Umbra, and HawkEye 360; GPS; miniature CubeSats for education and research; and military/defense satellites.

Loading next visibility...
Identifier
61245, 2024-175C
Orbit
LEO
Last TLE update
17 hours ago
Origin
Manufacturer
SpaceX/Seattle
Mission
Operational Commercial Communications
Bus & Motor
STARLINK V2M, Unknown motor
Mass
730 kg wet, ~700 kg dry
Launch date (UTC)
2024-09-25 (9 months ago)
Launch vehicle
FALCON 9
Launch site
Air Force Western Test Range (AFWTR)
Object type
Payload
Rocket body
Debris
Shape & HBR
Box + 2 Pan, 29 m
Radar Cross Section
36.964 m², Large (>1 m²)

Expand to show TLE details & history

TLE from 17 hours ago
0 STARLINK-11280
1 61245U 24175C   25181.40110184  .00000410  00000-0  82447-5 0  9998
2 61245  53.1595 219.8204 0001051  96.4764 263.6373 15.69712724 43749
Epoch: 2025-06-30T09:37Z
TLE epoch observation values (Epoch: 2025-06-30T09:37:35.198Z)
Latitude
-0.0001°
Longitude
156.71223°
Altitude
360.713 km
Speed
7.694 km/s
True Right ascension
14h 39m 16s
True Declination
0° 00' 00"
Sunlit
Object was in full shadow at epoch
Visualization orbit readout
Latitude
-26.90407°
Longitude
131.07716°
Altitude
368.169 km
Speed
7.688 km/s
Apparent Right ascension
10h 01m 45s
Apparent Declination
-76° 02' 29"
Sunlit
Object is in daylight
Visualization observer readout
Local Sidereal Time
13:54:29
Azimuth
193.938° SSW
Elevation
-31.68°
Doppler factor
1
Orbital elements
Apogee altitude
360.688 km
Perigee altitude
359.272 km
Semi-major axis
6,738.117 km
Eccentricity
0.00011
Inclination
53.1595°
RAAN
219.8204°
Arg. of periapsis
96.4764°
True anomaly
Unknown
Mean anomaly
263.6373°
Eccentric anomaly
Unknown
Mean motion
3.92406 °/min
Orbital period
91.74 mins
BSTAR
0.0000082447
Loading maneuver chart data...
Loading SW <> Apogee altitude chart data...
Loading historical data...
Loading historical data...
Loading historical data...
Loading historical data...
Loading historical data...
Loading historical data...
Loading historical data...

STARLINK-11280 Visibility forecast

Observer location: undefined°, undefined°

Span
Click to sort rows by Start time (UTC) header in descending order
Start Az.
Max El. time (UTC)
Max El. Az.
Max El.
End time (UTC)
End Az.
4 mins2025-07-01 05:42:22.756Z258.615° W2025-07-01 05:44:22.756Z355.737° N33.943°2025-07-01 05:46:22.756Z37.627° NE
4 mins2025-07-01 12:07:22.756Z304.264° NW2025-07-01 12:08:22.756Z280.564° WNW43.211°2025-07-01 12:11:22.756Z134.762° SE
|